#timestamp,LO_Frequency,Hit,StdDev 
1633230015.8,286046998.7,N
1633230035.7,286046999.3,N
1633230055.5,286046996.9,N
1633230075.3,286046999.6,N
1633230095.2,286046998.7,N
1633230115.0,286046996.9,N
1633230115.9,286046996.9,N
1633230135.8,286046999.1,N
1633230155.6,286047000.5,N
1633230175.4,286047000.4,N
1633230195.3,286047000.6,N
1633230215.1,286047000.3,N
1633230235.8,286046999.9,N
1633230255.7,286046996.7,N
1633230275.5,286046997.9,N
1633230295.4,286046995.0,N
1633230315.2,286046997.0,N
1633230335.0,286046997.6,N
1633230335.9,286046997.6,N
1633230355.8,286046995.5,N
1633230375.6,286046997.3,N
1633230395.4,286046997.9,N
1633230415.3,286046995.6,N
1633230435.1,286046995.5,N
1633230455.9,286046993.3,Y
1633230475.7,286046999.1,P
1633230495.5,286046996.8,P
1633230515.4,286046997.3,N
1633230535.2,286046997.5,N
1633230555.1,286046995.1,Y
1633230556.0,286046995.1,P
1633230575.8,286047000.9,N
1633230595.6,286047002.8,N
1633230615.5,286047000.8,N
1633230635.3,286047001.0,N
1633230655.1,286047000.4,N
1633230675.9,286047000.6,N
1633230695.7,286047002.6,N
1633230715.6,286046999.7,N
1633230735.4,286047001.9,N
1633230755.2,286047002.4,N
1633230775.1,286047001.9,N
1633230776.0,286047001.9,N
1633230795.8,286047001.8,N
1633230815.6,286047002.5,N
1633230835.5,286047002.0,N
1633230855.3,286047004.2,N
1633230875.2,286047001.7,N
1633230895.9,286047001.4,N
1633230915.7,286047003.4,N
1633230935.6,286047003.6,N
1633230955.4,286047003.2,N
1633230975.2,286047003.3,N
1633230995.1,286047004.2,N
1633230996.0,286047004.2,N
1633231015.8,286047003.1,N
1633231035.7,286047005.6,N
1633231055.5,286047002.9,N
1633231075.3,286047003.3,N
1633231095.2,286047005.5,N
1633231115.0,286047005.3,N
1633231115.9,286047005.3,Y
1633231135.8,286047004.4,P
1633231155.6,286047003.9,P
1633231175.4,286047004.2,P
1633231195.3,286047003.8,Y
1633231215.1,286046998.8,P
1633231235.8,286047001.0,N
1633231255.7,286046998.6,N
1633231275.5,286046998.5,N
1633231295.4,286047001.0,N
1633231315.2,286047000.4,N
1633231335.0,286046999.0,N
1633231335.9,286046999.0,N
1633231355.8,286047001.1,N
1633231375.6,286046999.1,N
1633231395.4,286046998.1,N
1633231415.3,286047000.0,N
1633231435.1,286047002.3,N
1633231455.9,286047002.2,N
1633231475.7,286047002.3,N
1633231495.5,286047001.6,N
1633231515.4,286047002.1,N
1633231535.2,286047001.5,N
1633231555.0,286047002.4,N
1633231555.9,286047002.4,N
1633231575.8,286047002.7,N
1633231595.6,286047002.8,N
1633231615.5,286047000.5,N
1633231635.3,286047002.7,N
1633231655.1,286047002.2,N
1633231675.9,286046999.7,N
1633231695.7,286047004.0,N
1633231715.5,286047002.9,N
1633231735.4,286047004.1,N
1633231755.2,286047003.6,N
1633231775.1,286047003.5,N
1633231776.0,286047003.5,N
1633231795.8,286047005.6,Y
1633231815.6,286047003.4,P
1633231835.5,286047001.3,N
1633231855.3,286047004.2,P
1633231875.1,286047004.0,Y
1633231895.9,286046998.2,P
1633231915.7,286047000.0,N
1633231935.6,286047000.0,N
1633231955.4,286047001.6,N
1633231975.2,286047001.8,N
1633231995.1,286047001.8,N
1633231996.0,286047001.8,N
1633232015.8,286047002.1,N
1633232035.7,286047003.5,N
1633232055.5,286047004.3,N
1633232075.3,286047004.2,N
1633232095.2,286047003.5,N
1633232115.9,286047003.0,N
1633232135.7,286047003.6,N
1633232155.6,286047003.9,N
1633232175.4,286047003.1,N
1633232195.3,286047003.8,N
1633232215.1,286047005.5,Y
1633232216.0,286047005.5,P
1633232235.8,286047001.7,N
1633232255.7,286047002.2,N
1633232275.5,286047002.0,N
1633232295.3,286047002.3,N
1633232315.2,286047001.4,N
1633232335.0,286047003.9,Y
1633232335.9,286047003.9,P
1633232355.8,286047002.7,P
1633232375.6,286047002.1,P
1633232395.4,286047001.6,N
1633232415.3,286047004.2,Y
1633232435.1,286047000.9,P
1633232455.9,286046999.9,N
1633232475.7,286047000.9,N
1633232495.5,286047000.9,N
1633232515.4,286046999.9,N
1633232535.2,286047000.6,N
1633232555.0,286047000.1,N
1633232555.9,286047000.1,N
1633232575.8,286047002.4,Y
1633232595.6,286047004.4,P
1633232615.5,286047003.4,N
1633232635.3,286047005.2,P
1633232655.1,286047008.5,Y
1633232675.9,286047003.3,P
1633232695.7,286047002.8,P
1633232715.6,286046999.3,N
1633232735.4,286046996.5,N
1633232755.2,286046998.4,N
1633232775.1,286047001.2,N
1633232776.0,286047001.2,N
1633232795.8,286046998.4,N
1633232815.6,286046998.5,N
1633232835.5,286046998.7,N
1633232855.3,286046997.0,N
1633232875.1,286046999.6,N
1633232895.9,286046998.3,N
1633232915.7,286046999.1,N
1633232935.6,286046998.1,N
1633232955.4,286046998.6,N
1633232975.2,286046999.3,N
1633232995.1,286046997.0,N
1633232996.0,286046997.0,N
1633233015.8,286046996.9,N
1633233035.7,286046996.9,N
1633233055.5,286046996.8,N
1633233075.3,286046996.6,N
1633233095.2,286046996.7,N
1633233115.9,286046999.6,N
1633233135.7,286046999.4,N
1633233155.6,286046999.5,N
1633233175.4,286046999.3,N
1633233195.3,286046998.8,N
1633233215.1,286047001.1,N
1633233216.0,286047001.1,N
1633233235.8,286047000.7,N
1633233255.7,286047001.1,N
1633233275.5,286046998.1,N
1633233295.3,286047000.6,N
1633233315.2,286047001.8,N
1633233335.0,286047003.7,N
1633233335.9,286047003.7,N
1633233355.8,286047005.0,N
1633233375.6,286047006.2,N
1633233395.4,286047007.0,N
1633233415.3,286047007.4,N
1633233435.1,286047006.7,N
1633233455.8,286047008.7,N
1633233475.7,286047009.0,N
1633233495.5,286047008.8,N
1633233515.4,286047008.8,N
1633233535.2,286047008.0,N
1633233555.0,286047008.6,N
1633233555.9,286047008.6,N
1633233575.8,286047008.0,N
1633233595.6,286047010.8,N
